Morristown, NJ

7:27 AM EDT on May 27, 2017 (GMT -0400)
Morristown Municipal

Weather History for KMMU - December, 2013

Change the Weather History Date:

Monday, December 30, 2013

  Actual Average Record
Temperature  
Mean Temperature 32 °F -  
Max Temperature 42 °F 40 °F 71 °F (1984)
Min Temperature 23 °F 22 °F -11 °F (1933)
Degree Days  
Heating Degree Days 32    
Moisture  
Dew Point 25 °F    
Average Humidity 72    
Maximum Humidity 93    
Minimum Humidity 50    
Precipitation  
Precipitation 0.00 in - - ()
Sea Level Pressure  
Sea Level Pressure 29.96 in    
Wind  
Wind Speed 5 mph (NW)    
Max Wind Speed 16 mph    
Max Gust Speed 23 mph    
Visibility 11 miles    
Events      
Averages and records for this station are not official NWS values.
T = Trace of Precipitation, MM = Missing Value Source: NWS Daily Summary

Daily Weather History Graph

Daily Weather History Graph

Search for Another Location

Airport or City:

Trip Planner

Search our weather history database for the weather conditions in past years. The results will help you decide how hot, cold, wet, or windy it might be!

Date:

Astronomy

Dec. 30, 2013 Rise Set
Actual Time 7:21 AM EST 4:39 PM EST
Civil Twilight 6:50 AM EST 5:10 PM EST
Nautical Twilight 6:16 AM EST 5:44 PM EST
Astronomical Twilight 5:42 AM EST 6:17 PM EST
Moon 5:08 AM EST (12/30) 3:10 PM EST (12/30)
Length of Visible Light 10h 19m
Length of Day
9h 17m
Waning Crescent, 5% of the Moon is Illuminated
Dec 30
Waning Crescent
Jan 1
New
Jan 7
First Quarter
Jan 15
Full
Jan 24
Last Quarter

Hourly Weather History & Observations

Time (EST) Temp. Windchill Dew Point Humidity Pressure Visibility Wind Dir Wind Speed Gust Speed Precip Events Conditions
12:15 AM 41.0 °F 38.0 °F 35.6 °F 81% 29.72 in 10.0 mi WNW 4.6 mph - N/A   Clear
12:35 AM 41.0 °F 39.0 °F 35.6 °F 81% 29.72 in 10.0 mi WNW 3.5 mph - N/A   Clear
12:55 AM 41.0 °F - 35.6 °F 81% 29.72 in 10.0 mi Calm Calm - N/A   Clear
1:15 AM 37.4 °F - 33.8 °F 87% 29.74 in 10.0 mi Calm Calm - N/A   Clear
1:35 AM 35.6 °F 32.8 °F 32.0 °F 87% 29.76 in 10.0 mi SSW 3.5 mph - N/A   Clear
1:55 AM 37.4 °F 33.8 °F 33.8 °F 87% 29.76 in 10.0 mi SSW 4.6 mph - N/A   Clear
2:15 AM 37.4 °F 33.8 °F 33.8 °F 87% 29.77 in 10.0 mi South 4.6 mph - N/A   Clear
2:35 AM 37.4 °F - 33.8 °F 87% 29.77 in 10.0 mi Calm Calm - N/A   Clear
2:55 AM 35.6 °F - 33.8 °F 93% 29.78 in 10.0 mi Calm Calm - N/A   Clear
3:15 AM 37.4 °F 34.9 °F 33.8 °F 87% 29.79 in 10.0 mi SW 3.5 mph - N/A   Mostly Cloudy
3:35 AM 39.2 °F 35.0 °F 35.6 °F 87% 29.78 in 10.0 mi WSW 5.8 mph - N/A   Overcast
3:55 AM 37.4 °F 34.9 °F 33.8 °F 87% 29.77 in 10.0 mi WSW 3.5 mph - N/A   Scattered Clouds
4:15 AM 37.4 °F 34.9 °F 35.6 °F 93% 29.78 in 10.0 mi SW 3.5 mph - N/A   Clear
4:35 AM 37.4 °F - 33.8 °F 87% 29.79 in 10.0 mi Calm Calm - N/A   Clear
4:55 AM 37.4 °F 34.9 °F 33.8 °F 87% 29.80 in 10.0 mi SSW 3.5 mph - N/A   Scattered Clouds
5:15 AM 37.4 °F 34.9 °F 33.8 °F 87% 29.80 in 10.0 mi SW 3.5 mph - N/A   Scattered Clouds
5:35 AM 35.6 °F 31.7 °F 32.0 °F 87% 29.81 in 10.0 mi WSW 4.6 mph - N/A   Scattered Clouds
6:45 AM 39.2 °F 34.2 °F 35.6 °F 87% 29.85 in 10.0 mi WSW 6.9 mph - N/A   Overcast
7:45 AM 39.2 °F 34.2 °F 35.6 °F 87% 29.89 in 10.0 mi WSW 6.9 mph - N/A   Overcast
8:45 AM 41.0 °F 37.1 °F 35.6 °F 81% 29.92 in 10.0 mi WSW 5.8 mph - N/A   Overcast
9:45 AM 42.8 °F 37.5 °F 33.8 °F 70% 29.95 in 10.0 mi WNW 9.2 mph - N/A   Overcast
10:45 AM 41.0 °F 34.3 °F 30.2 °F 65% 29.99 in 10.0 mi North 11.5 mph 23.0 mph N/A   Overcast
11:45 AM 37.4 °F 30.3 °F 28.4 °F 70% 30.00 in 15.0 mi NNW 10.4 mph 17.3 mph N/A   Overcast
12:45 PM 37.4 °F 32.1 °F 24.8 °F 60% 30.01 in 10.0 mi NNW 6.9 mph 20.7 mph N/A   Mostly Cloudy
1:45 PM 35.6 °F 27.5 °F 23.0 °F 60% 30.03 in 10.0 mi North 11.5 mph 20.7 mph N/A   Overcast
2:45 PM 35.6 °F 28.0 °F 19.4 °F 52% 30.06 in 20.0 mi NNW 10.4 mph 16.1 mph N/A   Mostly Cloudy
3:45 PM 32.0 °F 21.2 °F 17.6 °F 55% 30.10 in 20.0 mi North 16.1 mph 21.9 mph N/A   Mostly Cloudy
4:45 PM 30.2 °F 20.2 °F 17.6 °F 60% 30.12 in 20.0 mi North 12.7 mph 18.4 mph N/A   Mostly Cloudy
5:45 PM 28.4 °F 22.2 °F 15.8 °F 59% 30.14 in 10.0 mi North 5.8 mph 13.8 mph N/A   Mostly Cloudy
6:45 PM 26.6 °F 19.1 °F 14.0 °F 59% 30.16 in 10.0 mi North 6.9 mph - N/A   Mostly Cloudy
7:45 PM 24.8 °F 16.9 °F 12.2 °F 59% 30.17 in 10.0 mi North 6.9 mph - N/A   Mostly Cloudy
8:45 PM 23.0 °F 14.7 °F 12.2 °F 63% 30.20 in 10.0 mi North 6.9 mph - N/A   Clear
9:45 PM 23.0 °F 14.7 °F 12.2 °F 63% 30.21 in 10.0 mi NNE 6.9 mph - N/A   Clear
9:55 PM 24.8 °F 17.9 °F 8.6 °F 50% 30.20 in 10.0 mi North 5.8 mph - N/A   Clear
10:15 PM 24.8 °F 19.1 °F 8.6 °F 50% 30.20 in 10.0 mi North 4.6 mph - N/A   Clear
10:35 PM 24.8 °F 17.9 °F 8.6 °F 50% 30.20 in 10.0 mi North 5.8 mph - N/A   Clear
10:55 PM 24.8 °F 17.9 °F 8.6 °F 50% 30.20 in 10.0 mi North 5.8 mph - N/A   Clear
11:15 PM 24.8 °F 17.9 °F 8.6 °F 50% 30.19 in 10.0 mi North 5.8 mph - N/A   Clear
11:35 PM 23.0 °F 17.0 °F 8.6 °F 54% 30.18 in 10.0 mi North 4.6 mph - N/A   Clear
11:55 PM 23.0 °F 18.4 °F 8.6 °F 54% 30.19 in 10.0 mi North 3.5 mph - N/A   Clear